When you browse on this site, cookies collect data to enhance your experience and personalize the content and advertising you see.
Visit our Privacy Policy to learn more. By continuing to use the site, you agree to this use of cookies and data.
  • In Hungary
  • List of Countries
  • For 7 days
  • Water Temperature
  • Satellite Maps
  • Weather Map
  • News
  • Weather Widgets
  • user-avatar
    Login

    Hourly Weather Khulna

    Today, 10 December, Monday

    Time Temperature Precipitation Wind Pressure Humidity
    00:00 +20°C° 0 mm 1 mps 759 mmHg 49%
    01:00 +20°C° 0 mm 1 mps 759 mmHg 50%
    02:00 +20°C° 0 mm 1 mps 759 mmHg 50%
    03:00 +20°C° 0 mm 1 mps 759 mmHg 51%
    04:00 +19°C° 0 mm 1 mps 759 mmHg 53%
    05:00 +19°C° 0 mm 1 mps 759 mmHg 55%
    06:00 +19°C° 0 mm 1 mps 760 mmHg 61%
    07:00 +20°C° 0 mm 1 mps 760 mmHg 58%
    08:00 +21°C° 0 mm 2 mps 760 mmHg 54%
    09:00 +24°C° 0 mm 2 mps 761 mmHg 51%
    10:00 +26°C° 0 mm 2 mps 761 mmHg 46%
    11:00 +27°C° 0 mm 2 mps 760 mmHg 41%
    12:00 +30°C° 0 mm 2 mps 760 mmHg 31%
    13:00 +30°C° 0 mm 2 mps 759 mmHg 30%
    14:00 +30°C° 0 mm 2 mps 759 mmHg 30%
    15:00 +30°C° 0 mm 2 mps 758 mmHg 29%
    16:00 +29°C° 0 mm 2 mps 758 mmHg 33%
    17:00 +27°C° 0 mm 2 mps 758 mmHg 37%
    18:00 +24°C° 0 mm 1 mps 758 mmHg 42%
    19:00 +24°C° 0 mm 1 mps 759 mmHg 44%
    20:00 +23°C° 0 mm 1 mps 759 mmHg 45%
    21:00 +22°C° 0 mm 1 mps 759 mmHg 47%
    22:00 +22°C° 0 mm 1 mps 759 mmHg 48%
    23:00 +22°C° 0 mm 1 mps 759 mmHg 49%

    Tomorrow, 11 December, Tuesday

    Time Temperature Precipitation Wind Pressure Humidity
    00:00 +21°C° 0 mm 1 mps 759 mmHg 50%
    01:00 +21°C° 0 mm 1 mps 759 mmHg 50%
    02:00 +21°C° 0 mm 1 mps 759 mmHg 51%
    03:00 +20°C° 0 mm 1 mps 759 mmHg 52%
    04:00 +20°C° 0 mm 1 mps 759 mmHg 53%
    05:00 +20°C° 0 mm 1 mps 759 mmHg 54%
    06:00 +19°C° 0 mm 1 mps 759 mmHg 55%
    07:00 +21°C° 0 mm 1 mps 759 mmHg 50%
    08:00 +23°C° 0 mm 1 mps 760 mmHg 46%
    09:00 +25°C° 0 mm 2 mps 760 mmHg 42%
    10:00 +26°C° 0 mm 2 mps 760 mmHg 38%
    11:00 +28°C° 0 mm 2 mps 760 mmHg 33%
    12:00 +29°C° 0 mm 2 mps 760 mmHg 29%
    13:00 +30°C° 0 mm 2 mps 759 mmHg 28%
    14:00 +30°C° 0 mm 2 mps 759 mmHg 27%
    15:00 +31°C° 0 mm 2 mps 758 mmHg 25%
    16:00 +29°C° 0 mm 2 mps 758 mmHg 29%
    17:00 +27°C° 0 mm 2 mps 758 mmHg 32%
    18:00 +25°C° 0 mm 2 mps 758 mmHg 36%
    19:00 +25°C° 0 mm 2 mps 759 mmHg 37%
    20:00 +24°C° 0 mm 2 mps 759 mmHg 39%
    21:00 +23°C° 0 mm 2 mps 760 mmHg 41%
    22:00 +23°C° 0 mm 2 mps 760 mmHg 43%
    23:00 +21°C° 0 mm 2 mps 760 mmHg 46%

    Day after tomorrow, 12 December, Wednesday

    Time Temperature Precipitation Wind Pressure Humidity
    00:00 +22°C° 0 mm 1 mps 760 mmHg 48%
    01:00 +21°C° 0 mm 1 mps 760 mmHg 49%
    02:00 +21°C° 0 mm 1 mps 760 mmHg 50%
    03:00 +21°C° 0 mm 1 mps 760 mmHg 52%
    04:00 +20°C° 0 mm 1 mps 760 mmHg 53%
    05:00 +19°C° 0 mm 2 mps 760 mmHg 54%
    06:00 +19°C° 0 mm 2 mps 760 mmHg 56%
    07:00 +21°C° 0 mm 2 mps 760 mmHg 52%
    08:00 +23°C° 0 mm 2 mps 761 mmHg 48%
    09:00 +25°C° 0 mm 2 mps 762 mmHg 44%
    10:00 +27°C° 0 mm 2 mps 762 mmHg 40%
    11:00 +29°C° 0 mm 2 mps 761 mmHg 36%
    12:00 +30°C° 0 mm 2 mps 761 mmHg 32%
    13:00 +31°C° 0 mm 2 mps 760 mmHg 32%
    14:00 +31°C° 0 mm 2 mps 759 mmHg 31%
    15:00 +31°C° 0 mm 2 mps 759 mmHg 30%
    16:00 +29°C° 0 mm 2 mps 759 mmHg 34%
    17:00 +28°C° 0 mm 2 mps 759 mmHg 37%
    18:00 +26°C° 0 mm 2 mps 759 mmHg 41%
    19:00 +25°C° 0 mm 2 mps 760 mmHg 42%
    20:00 +24°C° 0 mm 2 mps 760 mmHg 44%
    21:00 +24°C° 0 mm 2 mps 761 mmHg 46%
    22:00 +23°C° 0 mm 2 mps 761 mmHg 46%
    23:00 +23°C° 0 mm 2 mps 761 mmHg 47%

    13 December, Thursday

    Time Temperature Precipitation Wind Pressure Humidity
    00:00 +21°C° 0 mm 2 mps 761 mmHg 48%
    01:00 +21°C° 0 mm 2 mps 761 mmHg 49%
    02:00 +20°C° 0 mm 2 mps 761 mmHg 49%
    03:00 +20°C° 0 mm 2 mps 760 mmHg 50%
    04:00 +20°C° 0 mm 2 mps 760 mmHg 51%
    05:00 +19°C° 0 mm 2 mps 761 mmHg 52%
    06:00 +19°C° 0 mm 2 mps 761 mmHg 53%
    07:00 +21°C° 0 mm 2 mps 762 mmHg 50%
    08:00 +23°C° 0 mm 2 mps 762 mmHg 47%
    09:00 +25°C° 0 mm 2 mps 763 mmHg 44%
    10:00 +27°C° 0 mm 2 mps 762 mmHg 39%
    11:00 +28°C° 0 mm 2 mps 762 mmHg 34%
    12:00 +30°C° 0 mm 3 mps 761 mmHg 29%
    13:00 +30°C° 0 mm 3 mps 761 mmHg 28%
    14:00 +30°C° 0 mm 3 mps 760 mmHg 27%
    15:00 +31°C° 0 mm 3 mps 759 mmHg 26%
    16:00 +29°C° 0 mm 3 mps 759 mmHg 29%
    17:00 +27°C° 0 mm 2 mps 760 mmHg 32%
    18:00 +25°C° 0 mm 2 mps 760 mmHg 35%
    19:00 +24°C° 0 mm 2 mps 760 mmHg 37%
    20:00 +23°C° 0 mm 2 mps 761 mmHg 38%
    21:00 +23°C° 0 mm 2 mps 762 mmHg 40%
    22:00 +21°C° 0 mm 2 mps 761 mmHg 42%
    23:00 +21°C° 0 mm 2 mps 761 mmHg 43%

    14 December, Friday

    Time Temperature Precipitation Wind Pressure Humidity
    00:00 +20°C° 0 mm 2 mps 761 mmHg 45%
    01:00 +20°C° 0 mm 2 mps 761 mmHg 47%
    02:00 +19°C° 0 mm 2 mps 761 mmHg 49%
    03:00 +19°C° 0 mm 2 mps 761 mmHg 51%
    04:00 +18°C° 0 mm 2 mps 761 mmHg 53%
    05:00 +18°C° 0 mm 2 mps 761 mmHg 55%
    06:00 +18°C° 0 mm 2 mps 761 mmHg 57%
    07:00 +19°C° 0 mm 3 mps 762 mmHg 54%
    08:00 +21°C° 0 mm 3 mps 762 mmHg 51%
    09:00 +22°C° 0 mm 3 mps 763 mmHg 49%
    10:00 +25°C° 0 mm 3 mps 763 mmHg 44%
    11:00 +26°C° 0 mm 3 mps 762 mmHg 39%
    12:00 +28°C° 0 mm 4 mps 762 mmHg 34%
    13:00 +28°C° 0 mm 3 mps 761 mmHg 32%
    14:00 +28°C° 0 mm 3 mps 761 mmHg 31%
    15:00 +29°C° 0 mm 3 mps 760 mmHg 29%
    16:00 +27°C° 0 mm 3 mps 760 mmHg 31%
    17:00 +26°C° 0 mm 2 mps 761 mmHg 33%
    18:00 +25°C° 0 mm 2 mps 761 mmHg 35%
    19:00 +25°C° 0 mm 2 mps 761 mmHg 35%
    20:00 +24°C° 0 mm 2 mps 762 mmHg 35%
    21:00 +24°C° 0 mm 2 mps 763 mmHg 36%
    22:00 +23°C° 0 mm 2 mps 762 mmHg 37%
    23:00 +21°C° 0 mm 2 mps 762 mmHg 38%

    15 December, Saturday

    Time Temperature Precipitation Wind Pressure Humidity
    00:00 +20°C° 0 mm 2 mps 762 mmHg 39%
    01:00 +20°C° 0 mm 2 mps 762 mmHg 39%
    02:00 +20°C° 0 mm 2 mps 762 mmHg 39%
    03:00 +20°C° 0 mm 2 mps 762 mmHg 38%
    04:00 +20°C° 0 mm 3 mps 762 mmHg 38%
    05:00 +20°C° 0 mm 3 mps 762 mmHg 38%
    06:00 +20°C° 0 mm 3 mps 762 mmHg 37%
    07:00 +20°C° 0 mm 3 mps 763 mmHg 39%
    08:00 +20°C° 0 mm 3 mps 763 mmHg 40%
    09:00 +20°C° 0 mm 3 mps 764 mmHg 42%
    10:00 +21°C° 0 mm 2 mps 764 mmHg 42%
    11:00 +21°C° 0 mm 2 mps 763 mmHg 42%
    12:00 +23°C° 0 mm 2 mps 763 mmHg 42%
    13:00 +23°C° 0 mm 1 mps 763 mmHg 43%
    14:00 +23°C° 0 mm 1 mps 762 mmHg 44%
    15:00 +23°C° 0 mm 1 mps 762 mmHg 45%
    16:00 +20°C° 0 mm 0 mps 762 mmHg 44%
    17:00 +20°C° 0 mm 0 mps 762 mmHg 44%
    18:00 +20°C° 0 mm 0 mps 762 mmHg 43%
    19:00 +20°C° 0 mm 0 mps 763 mmHg 43%
    20:00 +20°C° 0 mm 0 mps 763 mmHg 43%
    21:00 +20°C° 0 mm 0 mps 763 mmHg 43%
    22:00 +22°C° 0 mm 1 mps 763 mmHg 42%
    23:00 +22°C° 0 mm 1 mps 763 mmHg 41%
    Show more